Location: Czekanka
(50.4925°N, 19.2643°E)
Time: 06:36:50
(UTC+00:00)

SL-16 R/B - Pass Details

Date: 27 September 2024
Orbit: 842 x 846 km, 71.0° (Epoch: 05 October)

Event Time Altitude Azimuth Distance (km) Brightness Sun altitude
Rises 17:08:01 0° 208° (SSW) 3,392 5.7 -7.0°
Reaches altitude 10° 17:10:27 10° 208° (SSW) 2,461 4.9 -7.4°
Maximum altitude 17:16:07 88° 300° (WNW) 852 2.3 -8.3°
Drops below altitude 10° 17:21:49 10° 29° (NNE) 2,474 4.4 -9.2°
Sets 17:24:16 0° 30° (NNE) 3,412 5.1 -9.6°
